Time,TemperatureF,DewpointF,PressureIn,WindDirection,WindDirectionDegrees,WindSpeedMPH,WindSpeedGustMPH,Humidity,HourlyPrecipIn,Conditions,Clouds,dailyrainin,SoftwareType,DateUTC
2013-01-08 00:37:00,29.1,22.8,30.56,ENE,68,0.0,0.0,77,0.00,,,0.00,WUHU21623XXSP,2013-01-08 05:37:00,
2013-01-08 01:37:00,29.3,23.0,30.57,NNE,23,2.0,2.0,77,0.00,,,0.00,WUHU21623XXSP,2013-01-08 06:37:00,
2013-01-08 02:37:00,28.9,22.6,30.58,ESE,113,0.0,0.0,77,0.00,,,0.00,WUHU21623XXSP,2013-01-08 07:37:00,
2013-01-08 03:37:00,28.2,22.5,30.59,NNE,23,0.0,0.0,79,0.00,,,0.00,WUHU21623XXSP,2013-01-08 08:37:00,
2013-01-08 04:37:00,27.7,22.3,30.59,NE,45,0.0,0.0,80,0.00,,,0.00,WUHU21623XXSP,2013-01-08 09:37:00,
2013-01-08 05:37:00,27.1,22.0,30.59,NNE,23,0.0,0.0,81,0.00,,,0.00,WUHU21623XXSP,2013-01-08 10:37:00,
2013-01-08 06:37:00,26.8,22.0,30.60,NE,45,0.0,0.0,82,0.00,,,0.00,WUHU21623XXSP,2013-01-08 11:37:00,
2013-01-08 07:37:00,26.2,21.4,30.63,North,0,0.0,0.0,82,0.00,,,0.00,WUHU21623XXSP,2013-01-08 12:37:00,
2013-01-08 08:37:00,25.7,21.2,30.65,NW,315,0.0,0.0,83,0.00,,,0.00,WUHU21623XXSP,2013-01-08 13:37:00,
2013-01-08 09:37:00,26.4,21.9,30.67,ESE,113,0.0,0.0,83,0.00,,,0.00,WUHU21623XXSP,2013-01-08 14:37:00,
2013-01-08 10:37:00,29.8,25.3,30.68,East,90,0.0,0.0,83,0.00,,,0.00,WUHU21623XXSP,2013-01-08 15:37:00,
2013-01-08 11:37:00,34.3,28.5,30.67,NNE,23,0.0,0.0,79,0.00,,,0.00,WUHU21623XXSP,2013-01-08 16:37:00,
2013-01-08 12:37:00,37.0,30.2,30.66,SSE,158,0.0,0.0,76,0.00,,,0.00,WUHU21623XXSP,2013-01-08 17:37:00,
2013-01-08 13:37:00,39.4,31.5,30.65,North,0,0.0,0.0,73,0.00,,,0.00,WUHU21623XXSP,2013-01-08 18:37:00,
2013-01-08 14:37:00,39.6,31.4,30.64,SE,135,0.0,0.0,72,0.00,,,0.00,WUHU21623XXSP,2013-01-08 19:37:00,
2013-01-08 15:37:00,39.9,31.7,30.65,North,0,0.0,0.0,72,0.00,,,0.00,WUHU21623XXSP,2013-01-08 20:37:00,
2013-01-08 16:37:00,37.6,29.8,30.65,SE,135,0.0,0.0,73,0.00,,,0.00,WUHU21623XXSP,2013-01-08 21:37:00,
2013-01-08 17:37:00,34.3,27.2,30.66,NNE,23,0.0,0.0,75,0.00,,,0.00,WUHU21623XXSP,2013-01-08 22:37:00,
2013-01-08 18:37:00,31.3,25.0,30.65,North,0,0.0,0.0,77,0.00,,,0.00,WUHU21623XXSP,2013-01-08 23:37:00,
2013-01-08 19:37:00,29.8,24.1,30.63,NNW,338,0.0,0.0,79,0.00,,,0.00,WUHU21623XXSP,2013-01-09 00:37:00,
2013-01-08 20:37:00,31.3,25.9,30.61,WNW,293,0.0,0.0,80,0.00,,,0.00,WUHU21623XXSP,2013-01-09 01:37:00,
2013-01-08 21:37:00,30.9,25.5,30.60,NNW,338,0.0,0.0,80,0.00,,,0.00,WUHU21623XXSP,2013-01-09 02:37:00,
2013-01-08 22:37:00,30.0,24.9,30.60,WNW,293,0.0,0.0,81,0.00,,,0.00,WUHU21623XXSP,2013-01-09 03:37:00,
2013-01-08 23:37:00,29.3,24.5,30.58,East,90,0.0,0.0,82,0.00,,,0.00,WUHU21623XXSP,2013-01-09 04:37:00,